Location: Vienna
(48.2082°N, 16.3738°E)
Time: 09:32:25
(UTC+02:00)

ISS - Pass Details

Date: 22 July 2018
Orbit: 402 x 408 km, 51.6° (Epoch: 23 July)

Event Time Altitude Azimuth Distance (km) Brightness Sun altitude
Rises 23:38:03 0° 272° (W) 2,322 0.3 -19.2°
Reaches altitude 10° 23:40:11 10° 278° (W) 1,464 -0.7 -19.3°
Maximum altitude 23:43:22 46° 354° (N) 559 -2.7 -19.5°
Drops below altitude 10° 23:46:33 10° 69° (ENE) 1,469 -1.0 -19.6°
Enters shadow 23:48:24 - 75° (ENE) 2,215 -0.1 -19.7°
